Regional Weather Roundup
Issued by NWS

Home | Current Version | Previous Version | Text Only | Print | Product List | Glossary Off
Versions: 1 2 3 4 5 6 7 8 9 10 11 12 13 14 15 16 17 18 19 20 21 22 23 24 25 26 27 28 29 30 31 32 33 34 35 36 37 38 39 40 41 42 43 44 45 46 47 48 49 50

000
ASUS45 KABQ 312010
RWRNM
WEATHER ROUNDUP FOR NEW MEXICO
NATIONAL WEATHER SERVICE ALBUQUERQUE NM
200 PM MDT THU JUL 31 2014

NOTE: "FAIR" MEANS FEW OR NO CLOUDS BELOW 12,000 FEET AGL WITH NO
       SIGNIFICANT WEATHER OR OBSTRUCTIONS TO VISION.

      THIS PRODUCT IS RELEASED AS TWO VERSIONS.  ONE VERSION NEAR
      THE TOP OF THE HOUR CONTAINING PRELIMINARY DATA FROM ALBUQUERQUE
      AND OTHER STATIONS.  A FINAL VERSION WITH ADDITIONAL DATA IS
      ISSUED ABOUT 10 MINUTES AFTER THE HOUR.

NMZ501-503-504-510>518-312100-
NORTHWEST PLATEAU/NORTHCENTRAL MOUNTAINS

CITY           SKY/WX    TMP DP  RH WIND       PRES   REMARKS
FARMINGTON     MOSUNNY   89  47  23 NW9G17    30.15F
LOS ALAMOS     MOSUNNY   70  57  63 S8        30.34F
SANTA FE       PTSUNNY   72  56  57 S10G18    30.29F
TAOS           PTSUNNY   75  54  46 S9        30.30F
ANGEL FIRE     FAIR      70  53  53 W7G16     30.39F

$$
NMZ402-403-502-505>509-312100-
WESTCENTRAL MOUNTAINS/SOUTHWEST MOUNTAINS

CITY           SKY/WX    TMP DP  RH WIND       PRES   REMARKS
GALLUP         TSTM      74  51  44 MISG      30.28R
SILVER CITY    MOSUNNY   82  54  36 SW6       30.25F

$$
NMZ407-409-411-412-312100-
SOUTHERN DESERTS

CITY           SKY/WX    TMP DP  RH WIND       PRES   REMARKS
LORDSBURG      FAIR      88  55  33 E7        30.15F
DEMING         MOSUNNY   85  60  42 VRB3      30.16F
LAS CRUCES     PTSUNNY   81  58  46 S7        30.19F
HOLLOMAN AFB   MOSUNNY   82  63  51 S7        30.15F
ALAMOGORDO     MOSUNNY   82  59  44 SW6       30.17F
T OR C         SUNNY     84  56  38 MISG      30.17F

$$
NMZ519>523-312100-
CENTRAL VALLEYS/CENTRAL HIGHLANDS

CITY           SKY/WX    TMP DP  RH WIND       PRES   REMARKS
ALBUQUERQUE    MOSUNNY   77  58  51 VRB3      30.23F
DOUBLE EAGLE   MOSUNNY   77  59  53 S7        30.26F
MORIARTY ARPT  FAIR      73  57  56 S9        30.31F
CLINES CORNERS MOSUNNY   69  55  60 SW6       30.34F
BELEN          FAIR      79  59  50 SE12      30.21F
SOCORRO        FAIR      86  54  33 E13G20    30.18F

$$
NMZ524>526-539-540-312100-
SOUTHCENTRAL MOUNTAINS

CITY           SKY/WX    TMP DP  RH WIND       PRES   REMARKS
RUIDOSO        MOSUNNY   72  57  60 NE3       30.36S

$$
NMZ527>531-312100-
NORTHEAST HIGHLANDS/NORTHEAST PLAINS

CITY           SKY/WX    TMP DP  RH WIND       PRES   REMARKS
LAS VEGAS      CLOUDY    63  56  78 SE9       30.34F
RATON          CLOUDY    63  55  75 VRB3      30.33F
CLAYTON        MOSUNNY   71  48  43 CALM      30.28F

$$
NMZ532>537-312100-
EASTCENTRAL PLAINS

CITY           SKY/WX    TMP DP  RH WIND       PRES   REMARKS
TUCUMCARI      SUNNY     79  51  37 NE12      30.21F
CANNON AFB     PTSUNNY   77  49  38 E8        30.23F
CLOVIS AIRPORT NOT AVBL

$$
NMZ028-029-538-312100-
SOUTHEAST PLAINS

CITY           SKY/WX    TMP DP  RH WIND       PRES   REMARKS
ROSWELL        MOSUNNY   80  60  50 VRB5      30.18F
ARTESIA        PTSUNNY   72  63  73 SE7       30.20F
CARLSBAD       PTSUNNY   72  62  71 CALM      30.19F
HOBBS          PTSUNNY   79  55  44 NE6       30.19F


$$



USA.gov is the U.S. government's official web portal to all federal, state and local government web resources and services.